Temperature
18 17 16 16 17 17 17 17 16 16 16 16 16 16 15 15 15 15 15 15 14 14 14 14 14 14 14 14 14 13 14 14 14 14 13 13 13 13 13 13 13 13 13
20 17 16 16 16 16 16 16 16 16 16 16 15 15 15 15 15 15 14 14 14 14 14 14 14 14 13 13 13 13 13 14 14 13 13 13 12 12 13 13 13 13 13
19 17 16 16 16 16 16 16 16 16 15 15 15 15 15 14 14 14 14 14 14 14 14 14 14 13 13 13 13 13 13 13 13 13 13 12 12 11 12 12 12 12 12
19 17 16 16 16 16 16 16 16 15 15 15 14 14 14 14 14 13 13 13 13 13 13 13 13 13 13 12 12 12 12 12 12 12 12 11 11 11 11 11 11 11 11
18 17 16 15 15 16 16 15 15 15 15 14 14 14 14 14 13 13 13 13 13 13 13 13 13 13 13 12 12 12 12 12 12 12 11 11 11 11 11 11 11 11 11
18 17 16 15 15 15 15 15 15 15 14 14 14 14 14 13 13 13 13 13 13 13 13 13 13 13 13 12 12 11 12 12 11 11 11 11 11 10 11 11 11 11 11
18 16 15 15 15 15 15 15 15 14 14 14 14 13 13 13 13 13 13 13 12 12 13 13 13 13 12 12 12 11 11 11 11 11 11 11 10 10 10 10 10 10 10
18 16 15 15 15 15 15 14 14 14 14 13 13 13 13 13 13 12 12 12 12 12 12 12 12 12 12 12 11 11 11 11 11 11 11 10 10 10 10 10 10 10 10
17 16 15 14 14 14 14 14 14 14 13 13 13 13 13 13 13 12 12 12 12 12 12 12 12 12 12 11 11 11 11 11 10 10 10 10 10 10 10 10 10 10 10
16 15 15 14 14 14 14 14 14 13 13 13 13 13 13 12 12 12 12 12 12 12 12 12 12 11 11 11 11 10 10 10 10 10 10 10 10 10 10 9 9 9 10
15 14 14 14 14 14 14 13 13 13 13 12 12 12 12 12 12 12 12 12 12 12 12 12 12 11 11 10 10 10 10 10 10 10 10 10 10 9 9 9 9 9 9
14 14 14 14 14 14 13 13 13 13 12 12 12 12 12 12 12 12 12 12 12 12 12 12 11 11 11 10 10 10 10 10 10 10 10 10 9 9 9 9 9 9 9
15 14 14 14 14 13 13 13 13 13 12 12 12 12 12 12 12 12 12 12 12 12 12 11 11 11 10 10 10 10 10 10 10 10 10 10 9 9 9 9 9 9 9
14 14 14 14 14 13 13 13 13 13 13 12 12 12 12 12 12 12 12 12 12 12 11 11 11 10 10 10 10 10 10 10 10 10 10 10 10 9 9 9 9 9 8
15 14 14 14 13 13 13 13 13 13 13 13 12 12 12 12 12 12 12 12 12 11 11 11 10 10 10 10 10 10 10 10 10 10 10 10 10 9 9 9 8 8 8
15 15 14 14 14 13 13 13 13 13 13 13 13 12 12 12 12 12 12 12 11 11 11 10 10 10 10 10 10 10 10 10 10 10 10 10 10 9 9 9 9 8 8
16 15 15 14 14 13 13 13 13 13 13 13 13 12 12 12 12 12 12 12 11 11 11 10 10 10 10 10 10 10 10 10 10 10 10 10 10 9 9 9 9 9 8
16 15 15 14 14 14 13 13 13 13 13 13 13 12 12 12 12 12 12 12 11 11 10 10 10 10 9 9 9 9 9 9 9 10 10 10 9 9 9 9 9 9 9
16 15 15 14 14 14 13 13 13 13 13 13 13 13 12 12 12 12 12 12 11 11 10 10 10 10 10 9 9 9 9 9 9 9 10 9 9 9 9 9 9 9 9
16 16 15 15 14 14 13 13 13 13 13 13 13 13 13 12 12 12 12 11 11 11 10 10 10 9 9 9 9 9 9 9 9 9 9 9 9 9 9 9 9 9 9
16 15 15 15 14 13 13 13 13 13 13 13 13 13 12 12 12 12 12 11 11 11 10 10 10 9 9 9 9 9 9 9 9 9 9 9 9 9 9 9 9 9 9
16 16 15 15 14 14 14 14 14 14 13 13 13 12 12 12 12 12 12 12 11 11 10 10 10 9 9 9 9 9 9 9 9 9 9 9 9 9 9 9 9 9 8
16 16 16 15 15 15 15 14 13 13 12 12 12 12 12 12 12 12 12 12 11 11 11 10 10 10 10 9 9 9 9 9 9 9 9 9 9 9 9 9 9 9 8
17 17 17 16 16 15 15 14 13 13 13 14 14 13 13 12 12 12 12 12 11 11 11 11 10 10 10 10 9 9 9 10 9 9 9 9 9 9 9 9 9 9 8
17 17 17 17 16 16 15 14 14 14 14 14 14 13 13 13 12 12 12 11 11 11 11 11 10 10 10 10 10 9 9 9 9 9 9 9 9 9 9 9 8 8 8
17 17 17 16 16 16 15 15 15 15 14 14 14 13 13 13 12 12 12 11 11 11 11 11 10 10 10 10 9 9 9 9 9 9 9 9 9 9 9 8 8 8 8
Wind_Speed
12 16 28 28 27 26 26 25 24 24 23 23 23 22 22 21 21 21 20 20 19 19 19 19 19 19 19 19 19 20 20 20 19 19 18 18 18 18 17 17 16 15 17
17 22 29 28 28 27 26 25 25 24 24 23 23 22 21 21 21 20 20 19 19 19 19 19 19 18 18 18 18 18 18 19 19 18 17 16 16 17 16 16 15 14 16
21 23 28 29 28 27 26 26 25 24 24 23 23 22 22 21 20 20 20 19 19 19 19 18 18 17 17 17 17 17 18 19 18 17 15 13 14 16 16 15 15 16 15
22 22 25 28 28 27 27 26 25 25 24 24 23 22 22 21 20 20 20 19 19 19 19 18 18 17 17 17 17 17 18 18 17 15 13 11 11 14 15 15 15 15 15
19 21 25 28 28 27 27 26 26 25 24 23 23 22 22 21 21 20 20 20 19 19 19 18 17 16 16 16 16 17 18 19 17 15 13 12 11 13 14 14 14 14 14
18 19 25 28 28 27 27 26 26 25 24 23 23 22 21 21 21 20 20 19 19 19 18 18 17 16 16 15 16 17 18 18 16 14 12 11 10 12 14 14 14 14 14
18 18 24 28 28 27 26 26 26 25 24 24 23 22 22 22 21 21 20 19 19 18 18 17 16 15 15 15 15 16 17 16 15 12 10 9 10 12 13 13 14 14 15
19 18 22 27 27 27 26 26 26 25 24 24 24 23 22 22 21 21 20 19 18 18 17 17 16 15 15 15 15 15 15 14 13 10 10 9 11 12 13 13 14 15 15
17 16 16 21 24 26 26 26 25 25 25 24 24 23 23 22 21 20 19 19 18 17 17 16 15 15 14 14 14 14 14 14 12 9 8 8 11 12 13 13 13 13 13
15 14 13 14 19 20 22 25 25 25 24 24 23 23 22 22 21 20 19 18 18 17 16 15 15 14 13 12 12 12 13 13 12 10 7 8 11 12 13 13 13 13 13
16 13 13 13 13 16 19 22 23 24 24 23 22 23 21 18 18 17 17 18 18 17 15 15 14 13 11 10 10 12 12 11 11 8 7 9 10 11 12 12 11 12 12
21 18 15 14 14 14 16 18 18 18 19 19 19 19 17 16 16 16 18 17 17 16 15 13 12 11 8 7 8 10 11 11 9 7 7 9 9 10 11 10 11 11 11
23 20 18 16 15 13 10 12 11 13 15 17 18 18 17 15 14 14 13 14 14 14 11 11 9 7 6 5 6 9 10 9 8 7 7 8 9 9 10 10 10 10 10
21 21 19 17 16 13 11 10 10 9 10 11 16 18 16 10 9 10 9 10 11 10 9 8 6 5 5 5 7 8 9 9 9 8 7 8 8 9 8 8 8 9 9
21 21 20 18 17 14 12 11 10 9 10 13 15 17 17 10 7 8 8 10 10 10 9 7 6 5 4 4 6 8 8 9 9 9 8 8 8 7 7 7 7 7 7
22 22 21 20 18 16 13 11 10 11 12 14 14 16 18 15 11 8 7 8 9 11 10 9 7 5 4 4 5 7 8 9 9 9 8 7 7 6 6 6 6 5 6
22 22 22 21 19 18 15 13 11 11 13 11 13 17 18 17 15 11 7 6 9 12 11 8 6 5 4 4 4 5 7 8 8 9 8 7 7 6 5 5 4 3 3
20 22 22 21 21 20 16 14 11 12 12 11 14 16 18 19 18 13 8 7 11 11 9 5 4 4 4 4 3 3 4 6 7 8 8 8 7 6 5 4 3 2 2
21 22 23 21 22 21 18 14 12 11 11 12 14 14 17 19 19 14 9 9 12 8 5 5 4 4 4 4 4 3 2 3 4 6 6 7 8 7 6 4 4 3 2
20 21 22 21 21 20 16 12 11 11 11 11 12 14 18 18 19 15 10 10 12 7 6 5 5 4 4 5 4 3 1 1 2 4 5 7 8 8 8 6 5 4 4
20 21 22 21 21 19 17 16 15 15 13 12 11 15 18 18 19 14 8 9 9 9 8 8 5 5 4 4 4 2 3 2 1 2 3 4 6 8 9 8 8 7 5
23 23 24 24 24 23 18 16 13 12 10 10 9 12 17 18 18 15 11 10 9 8 9 8 6 5 3 4 4 3 0 3 3 2 2 4 4 6 7 9 9 9 8
23 25 24 25 24 24 19 13 10 8 7 8 11 13 13 17 18 15 14 11 10 10 10 9 9 8 6 4 3 5 4 4 2 2 3 3 4 3 5 7 9 10 10
23 23 25 26 25 25 21 19 20 17 15 14 14 12 12 15 16 16 15 13 12 10 10 11 9 6 8 5 3 2 3 4 3 1 3 2 3 5 5 5 7 9 10
21 22 23 24 25 24 23 23 22 18 14 9 9 12 13 12 13 15 15 13 13 11 12 11 10 8 7 6 5 3 2 1 2 3 3 3 3 4 5 5 6 8 10
18 20 21 23 24 24 25 24 24 21 16 14 14 15 13 11 12 14 15 14 13 12 12 11 12 11 9 7 6 5 4 4 4 4 4 3 4 4 3 3 5 7 10
Wind_Direction
172 171 164 159 154 151 148 145 142 139 136 132 128 126 124 123 121 119 116 112 109 107 104 102 100 97 97 97 96 92 88 84 82 78 76 74 74 73 71 69 66 61 62
159 167 163 159 155 152 149 147 143 139 137 135 132 129 128 127 125 122 119 115 112 109 106 104 101 101 101 101 99 95 91 89 85 81 75 72 74 74 72 70 68 66 65
156 164 162 160 157 154 151 148 145 141 138 136 134 132 131 130 129 126 123 120 116 112 109 106 105 104 105 103 101 97 94 94 90 84 74 63 71 74 74 72 70 67 66
157 162 161 161 158 155 151 149 147 145 141 139 137 135 134 133 132 129 126 123 119 115 112 109 108 108 107 104 100 98 96 95 92 84 67 59 68 76 75 74 73 70 67
157 161 161 160 158 155 152 150 148 147 145 142 140 138 137 135 133 130 127 125 122 118 116 114 113 112 109 104 100 98 98 96 92 80 67 60 64 75 75 75 73 71 68
156 159 162 161 159 156 154 152 150 149 148 145 143 141 140 138 135 131 129 126 124 122 120 118 116 114 110 106 102 101 101 99 92 79 68 61 64 76 78 75 72 70 69
156 158 163 162 160 158 156 154 153 152 149 147 145 144 143 139 136 132 130 130 128 126 123 122 120 117 112 108 104 103 103 101 93 82 70 64 72 79 81 78 74 71 71
156 158 163 163 161 160 159 156 155 153 151 149 148 146 144 141 139 137 136 135 132 130 128 127 124 122 117 111 105 104 106 102 95 83 73 68 78 84 83 80 76 71 69
156 158 162 163 162 161 159 158 157 154 153 151 150 148 145 144 143 142 141 140 136 133 131 129 127 126 121 113 105 103 107 107 97 88 77 74 83 87 85 80 77 75 71
157 160 160 159 160 159 159 158 157 155 154 153 150 147 146 146 146 145 143 142 140 137 134 133 131 130 125 116 106 102 108 107 99 94 83 85 87 86 85 83 79 75 71
162 164 160 158 157 156 156 158 156 156 156 152 149 147 146 145 143 143 144 146 144 142 139 137 135 131 125 115 104 106 111 111 106 98 90 95 94 90 87 84 80 76 74
171 171 166 162 159 156 159 157 156 155 153 148 148 146 143 141 141 145 148 149 148 146 144 142 141 134 120 106 100 108 117 119 112 105 103 101 98 96 92 88 82 81 79
173 172 170 166 162 161 157 155 154 150 149 148 149 148 146 142 144 147 149 151 148 145 145 143 135 131 127 121 111 119 126 124 121 111 109 107 104 103 97 94 89 84 80
172 174 171 168 165 164 157 158 154 154 155 155 156 154 150 146 147 151 150 150 148 149 147 144 145 148 146 142 130 130 132 131 130 120 113 111 107 103 102 99 93 90 83
175 175 173 171 169 165 160 162 162 161 162 161 161 161 158 155 157 157 157 158 158 159 158 156 159 158 158 148 135 136 136 138 137 128 118 111 109 109 107 104 99 93 89
178 177 174 175 173 168 167 168 166 167 167 167 167 167 164 163 163 161 161 164 168 170 170 167 166 159 154 138 130 137 141 145 143 137 130 120 116 117 115 108 102 94 91
180 178 177 177 174 172 171 170 170 172 171 172 174 171 169 168 168 166 165 169 176 175 170 163 156 147 135 128 125 134 139 148 150 150 144 135 126 123 126 120 110 104 96
179 179 179 179 177 176 175 174 172 175 175 176 176 176 174 172 172 168 168 176 179 173 165 154 147 136 136 132 128 127 131 144 157 161 157 154 149 145 147 148 145 137 120
182 180 180 180 179 178 176 175 172 175 178 178 178 178 178 177 175 173 173 176 174 168 163 164 151 144 145 142 133 121 125 143 161 165 169 174 173 172 173 177 179 185 193
185 182 182 181 179 177 175 173 172 176 181 180 182 181 179 180 178 175 175 175 172 165 167 162 152 144 147 145 121 93 72 124 153 167 179 185 189 191 193 192 193 205 221
188 185 183 182 180 177 179 181 181 185 185 184 185 183 182 181 179 177 176 174 175 175 174 161 147 148 143 133 101 62 5 0 271 210 189 189 199 203 204 204 206 213 224
191 189 186 185 182 183 186 186 184 179 180 181 179 183 184 183 181 182 176 179 178 173 170 168 151 147 156 155 133 118 32 323 302 261 226 212 211 206 210 213 214 216 220
194 191 189 188 186 187 183 175 165 156 156 173 185 189 189 186 185 184 182 179 180 180 182 179 168 161 167 185 163 150 160 214 256 295 253 233 220 217 222 220 219 219 219
197 192 191 189 188 187 182 179 178 181 187 191 188 188 185 187 186 185 183 182 183 184 183 183 177 167 161 177 193 182 161 154 161 244 296 268 239 229 228 224 220 219 218
198 193 191 189 190 188 185 184 185 190 193 177 174 178 184 188 188 186 185 185 187 188 187 184 179 177 173 172 174 166 151 130 140 160 236 276 278 249 232 225 220 221 220
197 193 191 189 190 189 188 188 189 191 184 175 180 186 189 190 191 191 188 190 191 190 189 188 186 185 185 179 180 172 165 168 185 175 202 231 248 264 246 230 223 224 224
Height
1479 1484 1489 1493 1496 1499 1502 1505 1508 1511 1513 1515 1517 1519 1521 1522 1524 1525 1527 1528 1529 1530 1530 1531 1531 1532 1532 1533 1533 1533 1533 1534 1534 1534 1534 1534 1534 1533 1533 1533 1533 1532 1532
1475 1482 1487 1491 1495 1498 1501 1505 1508 1510 1513 1515 1517 1519 1520 1522 1524 1525 1526 1528 1529 1530 1530 1531 1531 1532 1533 1533 1533 1534 1534 1534 1534 1534 1534 1534 1534 1534 1533 1533 1533 1533 1532
1475 1480 1485 1490 1494 1497 1500 1504 1507 1509 1512 1514 1516 1518 1520 1522 1523 1525 1526 1527 1528 1529 1530 1531 1531 1532 1533 1533 1534 1534 1534 1534 1535 1535 1535 1535 1535 1535 1534 1534 1534 1534 1533
1475 1479 1484 1489 1493 1496 1499 1503 1506 1509 1511 1514 1516 1518 1520 1521 1523 1525 1526 1527 1528 1529 1530 1530 1531 1532 1533 1534 1534 1534 1535 1535 1535 1536 1536 1536 1536 1536 1536 1535 1535 1534 1534
1475 1479 1483 1488 1492 1495 1498 1502 1505 1508 1511 1513 1515 1517 1519 1521 1523 1524 1526 1527 1528 1529 1530 1530 1531 1532 1533 1534 1535 1535 1535 1536 1536 1537 1537 1537 1537 1537 1537 1536 1536 1535 1535
1474 1478 1483 1487 1491 1494 1498 1501 1504 1507 1510 1512 1514 1517 1519 1521 1522 1524 1525 1527 1528 1529 1530 1531 1532 1533 1534 1535 1535 1536 1536 1537 1537 1538 1538 1538 1538 1538 1538 1537 1537 1537 1536
1473 1478 1482 1486 1490 1494 1497 1500 1503 1506 1509 1511 1514 1516 1518 1520 1522 1523 1525 1527 1528 1529 1530 1531 1532 1533 1534 1535 1536 1537 1537 1538 1538 1539 1539 1539 1539 1539 1539 1539 1538 1538 1537
1472 1476 1481 1486 1489 1493 1496 1499 1502 1505 1508 1511 1513 1515 1518 1520 1522 1523 1525 1527 1528 1529 1531 1532 1533 1534 1535 1536 1537 1537 1538 1539 1539 1540 1540 1540 1540 1540 1540 1540 1539 1539 1538
1472 1476 1480 1485 1488 1492 1495 1498 1501 1504 1507 1510 1512 1515 1517 1519 1521 1523 1525 1527 1528 1530 1531 1532 1533 1535 1536 1537 1538 1538 1539 1540 1540 1541 1541 1541 1541 1541 1541 1540 1540 1540 1539
1471 1475 1479 1483 1487 1490 1494 1497 1500 1503 1506 1509 1512 1514 1516 1519 1521 1523 1525 1527 1528 1530 1531 1533 1534 1535 1536 1537 1538 1539 1540 1541 1541 1541 1542 1542 1542 1542 1542 1541 1541 1540 1540
1470 1474 1477 1481 1485 1489 1492 1496 1499 1503 1506 1508 1511 1513 1516 1518 1520 1522 1524 1526 1528 1530 1531 1533 1534 1536 1537 1538 1539 1540 1541 1541 1542 1542 1542 1543 1543 1543 1542 1542 1541 1541 1540
1466 1471 1475 1479 1482 1486 1490 1494 1498 1501 1504 1507 1509 1512 1515 1517 1519 1522 1524 1526 1528 1530 1532 1533 1535 1536 1537 1539 1540 1541 1541 1542 1543 1543 1543 1543 1544 1543 1543 1543 1542 1542 1541
1461 1466 1471 1476 1480 1484 1488 1491 1495 1499 1502 1505 1508 1511 1514 1516 1519 1521 1523 1526 1528 1530 1531 1533 1535 1536 1538 1539 1540 1541 1542 1543 1543 1543 1544 1544 1544 1544 1544 1543 1543 1542 1542
1459 1463 1468 1473 1477 1481 1485 1489 1493 1496 1500 1503 1506 1509 1512 1515 1517 1520 1523 1525 1527 1529 1531 1533 1535 1537 1538 1540 1540 1541 1542 1543 1544 1544 1544 1544 1545 1545 1544 1544 1543 1543 1542
1455 1460 1465 1470 1474 1478 1483 1487 1490 1494 1498 1501 1505 1508 1511 1513 1516 1519 1522 1524 1527 1529 1531 1533 1535 1536 1538 1539 1541 1542 1542 1543 1544 1544 1545 1545 1545 1545 1545 1544 1544 1544 1543
1452 1457 1462 1466 1471 1476 1480 1484 1488 1492 1496 1500 1503 1506 1509 1512 1515 1518 1521 1524 1526 1528 1531 1533 1535 1536 1538 1539 1541 1542 1543 1543 1544 1544 1545 1545 1545 1545 1545 1545 1544 1544 1543
1448 1453 1458 1463 1468 1473 1477 1482 1486 1490 1494 1497 1501 1504 1507 1511 1514 1517 1520 1522 1525 1528 1530 1532 1534 1536 1538 1539 1540 1541 1542 1543 1544 1544 1545 1545 1545 1545 1545 1545 1544 1544 1543
1445 1449 1454 1460 1464 1469 1474 1479 1483 1488 1491 1495 1499 1502 1505 1509 1512 1515 1518 1521 1524 1527 1529 1531 1533 1535 1537 1539 1540 1541 1542 1543 1543 1544 1544 1545 1545 1545 1545 1545 1544 1544 1543
1441 1445 1450 1455 1460 1465 1471 1476 1481 1485 1489 1493 1496 1500 1503 1507 1510 1514 1517 1520 1523 1525 1528 1530 1532 1534 1536 1538 1539 1541 1541 1542 1543 1543 1544 1544 1544 1544 1544 1544 1544 1543 1542
1437 1441 1446 1451 1456 1462 1468 1473 1478 1482 1486 1490 1493 1497 1500 1504 1508 1511 1515 1518 1521 1523 1526 1528 1531 1533 1535 1537 1539 1540 1541 1541 1542 1542 1543 1543 1543 1543 1543 1543 1543 1542 1541
1432 1436 1441 1446 1452 1457 1462 1467 1471 1475 1480 1485 1489 1493 1497 1501 1505 1508 1512 1515 1518 1521 1523 1526 1529 1531 1533 1535 1537 1538 1539 1540 1540 1541 1541 1541 1542 1542 1542 1542 1541 1541 1540
1424 1429 1435 1440 1445 1450 1455 1460 1465 1471 1476 1480 1485 1490 1494 1498 1501 1505 1508 1511 1515 1518 1521 1524 1526 1529 1531 1533 1535 1536 1538 1539 1538 1539 1539 1539 1540 1540 1540 1540 1540 1539 1538
1417 1422 1427 1433 1438 1444 1450 1456 1463 1469 1474 1478 1481 1485 1489 1493 1497 1501 1504 1508 1511 1515 1517 1520 1523 1526 1528 1530 1533 1534 1535 1535 1536 1536 1536 1537 1538 1538 1538 1538 1537 1537 1536
1409 1414 1420 1426 1431 1437 1444 1449 1454 1458 1462 1466 1472 1478 1484 1488 1493 1497 1500 1504 1508 1511 1514 1517 1520 1523 1526 1527 1530 1531 1533 1533 1534 1534 1535 1535 1535 1535 1535 1535 1535 1534 1533
1403 1408 1413 1419 1425 1431 1437 1442 1447 1452 1457 1463 1469 1474 1479 1484 1488 1492 1496 1500 1503 1507 1510 1514 1516 1519 1522 1524 1526 1528 1529 1531 1531 1532 1532 1532 1533 1533 1533 1532 1532 1531 1531
1396 1401 1406 1411 1417 1424 1429 1435 1440 1445 1451 1457 1462 1468 1473 1478 1483 1487 1491 1494 1498 1502 1505 1509 1512 1516 1518 1521 1523 1525 1526 1527 1528 1529 1529 1529 1529 1530 1530 1529 1529 1528 1527